Location: Allens Landing
(37.8284°N, 89.7284°W)
Time: 21:46:37
(UTC+00:00)

Courier 1B - Pass Details

Date: 14 November 2024
Orbit: 962 x 1208 km, 28.3° (Epoch: 03 December)

Event Time Altitude Azimuth Distance (km) Brightness Sun altitude
Rises 00:35:18 0° 262° (W) 3,637 12.1 -21.2°
Reaches altitude 10° 00:38:33 10° 247° (WSW) 2,702 10.9 -21.8°
Maximum altitude 00:43:18 21° 199° (SSW) 2,024 9.4 -22.7°
Drops below altitude 10° 00:48:11 10° 152° (SSE) 2,780 9.7 -23.7°
Enters shadow 00:48:14 10° 152° (SSE) 2,792 9.7 -23.7°
